sat.trackr.live / text

‹ back to catalog

STARLINK-3646

NORAD 51785 · 2022-017T

PAYLOAD ACTIVE UNKNOWN

§ Identity

Operator
Country
US
Launch date
2022-02-25
Launch site
AFWTR
Launch vehicle
Mass (kg)
RCS (m²)

Purposes: comms

External: N2YO · Heavens-Above · Gunter

§ Orbital elements

Epoch: 2026-09-19T11:53:59.153856Z

Period
94.01 min
Inclination
53.1599°
Eccentricity
0.0001173
Mean motion
15.31700904 rev/d
Perigee alt
469.9 km
Apogee alt
471.5 km
Semi-major
6,848.9 km
B*
5.5344e-6
RAAN
174.0860°
Arg perigee
89.2327°
Mean anomaly
270.8809°
Rev number
25,188

§ Raw data

STARLINK-36461 51785U 22017T   26262.49582354 -.00000193  00000+0  55344-5 0  99952 51785  53.1599 174.0860 0001173  89.2327 270.8809 15.31700904251887

JSON: /api/v1/satellites/51785 · /tle

For live sub-satellite position, see the globe view (requires WebGL).

§ Visibility from observer

Set your observer location to see the next 7 days of passes ≥ 10°. The values pass through the URL so the page stays shareable.

No JS? Fill the form by hand. The geolocation button needs JavaScript.